Wind_Speed
37 33 23 10 10 14 14 12 12 11 11 11 12 12 13 14 15 16 16 16 16 15 14 14 14 14 13 13 12 12 13 15 20 24 27 28 28 29 29 29 30 29 29 29 29 29 28 27 25 25 26 26 27 27 27 27 28 28 29 28 28 28 30 30 28 25 23 22 22
38 37 31 21 8 10 14 14 14 14 14 14 15 15 16 16 16 17 17 17 16 15 14 13 12 11 11 11 11 12 15 19 23 26 27 28 29 30 30 30 30 30 30 29 29 29 28 26 25 24 24 24 25 25 25 26 27 27 27 28 27 28 28 29 28 27 25 23 22
40 39 37 32 20 7 9 13 15 15 16 15 15 15 15 15 15 15 15 15 14 13 12 11 10 10 10 11 12 15 18 21 24 26 28 29 30 31 31 31 31 30 30 30 29 29 28 26 25 24 24 23 23 23 23 24 25 25 26 26 26 27 27 27 27 27 25 23 22
39 39 39 38 34 25 14 8 3 1 4 6 7 7 7 8 8 8 8 9 10 10 11 11 11 11 12 14 16 18 20 23 25 27 28 29 30 31 31 31 31 30 30 30 29 28 27 27 25 24 23 23 23 23 23 23 24 24 24 25 25 26 26 27 27 27 26 24 23
39 39 38 38 38 36 31 25 21 17 14 12 11 9 8 7 7 7 8 9 10 12 13 14 15 15 15 16 18 20 21 23 25 26 27 28 29 30 31 31 30 30 30 29 29 28 27 26 25 23 23 24 23 23 23 24 24 23 23 23 23 24 25 26 26 26 25 25 24
38 39 39 38 37 36 34 30 27 23 20 18 16 14 12 11 10 10 10 10 11 13 15 17 18 18 18 18 19 20 21 22 24 25 26 27 28 29 30 30 30 30 29 29 28 28 27 26 24 23 23 23 23 22 23 23 23 22 21 21 21 22 24 25 25 25 25 24 24
37 39 39 39 37 36 34 33 30 27 24 21 19 16 14 13 12 12 12 12 12 13 15 17 19 20 20 20 19 20 20 21 22 23 25 26 27 28 29 30 30 29 29 28 27 27 26 25 23 22 22 23 22 21 22 23 22 21 20 19 19 20 22 23 25 25 25 25 25
39 40 40 40 39 37 35 35 33 31 28 24 21 18 15 14 13 12 12 12 12 13 15 17 19 20 21 21 20 20 20 20 20 21 23 24 26 27 28 29 29 29 28 27 27 26 25 24 22 21 21 21 21 21 21 22 22 20 19 18 18 19 21 23 25 26 26 26 25
40 40 41 41 40 38 36 35 35 34 32 29 25 21 17 15 14 13 13 12 13 14 15 17 18 19 20 20 20 20 20 20 20 20 21 22 24 25 26 27 28 28 27 26 26 26 25 23 21 20 21 21 21 21 22 22 21 19 18 17 17 18 19 22 24 25 26 25 25
38 39 39 40 39 39 37 36 36 35 34 33 30 26 21 16 14 13 13 13 13 14 15 16 17 18 18 18 19 19 19 19 20 20 21 21 22 23 24 26 27 27 27 26 26 26 25 23 21 20 21 22 22 22 22 23 22 20 18 17 17 18 19 20 22 23 24 24 24
36 36 37 37 38 38 38 36 36 36 35 34 33 30 25 20 15 13 13 13 13 14 14 14 15 16 16 16 16 17 17 18 18 19 20 20 21 22 23 24 26 27 27 27 27 26 25 23 21 21 21 22 22 23 23 23 23 21 19 18 18 18 18 18 19 21 21 22 23
36 35 36 36 37 37 36 36 35 35 36 35 34 32 29 25 19 13 11 12 13 13 12 13 13 14 15 15 15 15 16 16 17 18 18 19 19 19 20 21 23 25 26 27 27 26 25 23 22 22 22 22 23 24 25 25 25 23 22 20 18 18 17 17 18 19 20 20 21
37 36 36 36 36 35 35 35 34 34 35 35 34 33 31 29 25 18 12 11 12 12 11 11 11 12 13 14 15 15 16 16 16 16 17 17 17 17 18 18 20 21 23 24 25 25 24 24 23 23 23 23 23 24 26 27 26 25 23 21 19 18 18 18 19 19 19 19 19
39 38 36 36 35 35 34 34 33 33 34 35 34 34 33 31 29 25 18 12 10 10 10 10 10 10 11 12 14 15 15 16 16 16 16 16 16 16 16 17 17 18 19 20 21 22 23 24 25 25 25 25 24 25 26 26 26 26 25 23 22 21 20 20 20 20 19 19 18
40 39 38 37 35 34 34 32 31 32 33 34 34 34 33 32 31 29 25 19 12 8 8 9 8 8 9 10 12 13 14 15 15 15 15 15 15 15 16 16 16 15 16 16 17 19 22 24 25 26 26 26 26 25 25 25 25 25 25 24 24 23 23 22 22 21 19 18 17
40 40 39 37 36 34 33 32 31 31 32 32 33 33 33 32 32 31 29 26 19 12 7 7 7 6 6 7 9 11 13 14 14 14 14 14 14 15 15 15 14 14 13 13 14 16 19 22 23 24 25 25 25 25 25 24 24 23 24 24 25 24 24 22 21 19 18 16 16
40 39 39 38 36 34 33 32 31 31 31 32 32 33 32 32 32 32 31 29 26 20 13 7 5 5 5 5 7 9 11 12 13 13 13 14 14 14 14 13 13 13 12 11 12 13 15 17 19 20 22 23 23 23 24 23 23 22 23 23 24 23 22 20 18 17 17 17 18
38 38 38 38 36 35 33 32 31 31 30 30 31 32 32 32 32 31 31 30 29 26 22 15 8 4 4 5 5 7 9 10 11 12 13 13 13 13 13 13 12 12 12 11 11 11 12 14 15 16 18 19 19 20 21 22 22 21 21 22 21 20 19 18 17 17 18 19 22
36 37 37 36 35 34 33 32 31 31 30 29 30 31 31 32 32 31 30 30 29 28 26 23 18 11 5 4 5 6 7 9 10 11 12 13 13 13 13 13 12 12 12 11 11 11 11 12 13 14 14 15 16 17 18 19 20 20 19 19 18 17 17 17 18 20 22 23 26
34 34 34 33 34 33 33 32 31 30 30 29 30 30 31 31 32 31 30 29 28 27 27 25 24 20 14 6 2 5 7 9 10 11 12 13 13 13 13 13 12 12 12 11 11 10 11 11 12 12 13 13 14 15 16 17 18 18 18 17 17 17 17 18 20 22 24 26 27
33 33 32 32 32 32 32 32 31 31 30 30 29 29 30 30 31 31 30 29 28 27 27 25 25 24 21 16 8 1 6 9 11 11 12 12 13 13 14 13 13 12 12 11 11 11 11 11 12 12 13 13 14 14 16 17 17 17 17 17 17 17 18 19 20 22 25 27 28
32 32 32 31 31 31 32 32 32 32 31 30 29 29 29 29 29 30 29 29 29 28 27 26 25 24 23 21 17 9 1 7 10 12 12 12 13 13 14 13 13 13 12 12 11 11 12 12 12 13 13 14 15 16 17 17 17 17 16 17 17 18 19 19 20 21 23 25 27
31 31 31 31 32 32 32 32 33 32 32 30 29 29 28 28 28 29 29 29 29 29 28 27 26 25 24 22 20 16 10 2 6 10 12 12 13 13 13 14 14 14 13 13 13 13 13 14 14 14 14 15 16 17 17 17 16 16 15 16 17 18 19 19 20 20 21 22 23
29 30 31 31 32 32 32 32 33 32 32 30 29 28 27 28 28 29 29 29 29 28 28 27 26 25 25 23 22 20 17 13 5 4 9 12 13 13 14 14 15 15 15 16 16 16 17 17 17 17 16 16 17 18 18 18 17 17 16 16 17 19 20 20 20 20 20 20 20
28 29 30 31 31 32 32 32 32 31 31 30 28 27 27 27 27 28 28 29 28 28 27 27 26 26 25 25 24 22 21 19 15 8 1 8 12 13 14 15 16 16 17 18 18 19 20 20 20 20 19 19 19 19 20 20 21 20 20 19 20 20 20 20 21 21 21 21 21
28 28 29 29 30 31 31 31 31 31 30 30 28 26 25 25 26 27 27 28 28 27 27 26 26 26 25 25 24 23 22 21 20 17 12 3 6 11 14 15 16 17 18 19 20 21 22 22 22 22 22 22 21 21 21 22 23 23 23 22 22 21 20 20 20 21 22 23 24
27 27 28 28 29 30 30 30 30 30 30 30 28 26 24 24 24 25 26 27 27 27 27 27 26 25 25 24 24 24 23 22 21 20 18 15 7 2 9 13 15 17 18 20 21 22 22 22 22 22 23 23 22 22 22 22 23 23 23 23 22 21 20 20 21 22 23 24 25
27 27 27 27 28 29 29 29 30 30 29 29 27 25 23 22 23 24 24 26 27 27 27 26 26 25 25 24 23 23 23 23 22 21 20 18 16 12 5 5 11 15 18 19 20 21 21 21 21 21 21 21 22 22 22 22 23 23 23 22 21 21 21 22 22 23 23 24 25
27 26 26 26 27 27 28 28 28 28 28 28 27 25 23 21 22 22 23 24 26 26 25 25 25 25 24 24 23 22 22 22 22 21 21 20 18 17 15 10 4 9 15 18 20 20 20 20 20 20 20 20 20 20 21 21 22 22 22 21 21 21 22 23 23 23 24 24 24
27 26 26 26 26 26 27 27 27 27 27 27 27 26 24 21 21 22 23 23 24 24 24 24 24 24 24 24 23 23 22 22 22 21 21 21 20 18 17 15 12 7 7 15 19 20 20 20 20 20 20 20 19 19 19 20 21 21 21 21 21 22 23 23 23 23 24 24 24
27 27 26 26 26 26 26 26 25 26 26 27 27 26 24 22 21 21 22 22 23 24 24 24 24 24 24 24 24 23 23 22 22 22 21 21 20 19 18 16 16 14 9 7 14 20 22 22 21 21 21 21 21 20 19 20 20 21 21 22 22 22 23 23 23 23 24 24 24
27 27 27 26 26 25 25 25 25 25 25 26 26 26 25 22 21 20 21 22 22 23 24 24 24 24 25 25 24 24 23 23 23 22 22 21 20 19 18 17 16 16 14 11 7 12 19 23 24 23 23 23 23 22 21 20 21 21 22 22 23 23 23 23 23 24 24 24 24
28 28 27 27 26 25 25 25 25 24 25 25 26 26 25 23 21 20 20 21 22 22 23 23 23 23 23 23 23 23 23 23 23 23 22 21 20 20 19 18 16 16 15 15 12 8 9 17 23 25 26 25 25 24 23 22 22 22 22 23 24 23 23 23 23 23 24 24 24
27 28 27 27 26 26 25 25 25 25 24 25 25 25 25 23 22 21 20 21 21 21 21 21 21 21 21 22 22 22 22 22 23 23 23 22 21 20 20 19 17 16 16 15 15 14 10 7 12 21 26 27 27 26 25 24 24 24 24 25 25 24 23 22 22 23 24 24 24
26 27 27 27 26 26 26 26 26 25 25 25 25 25 24 23 21 20 20 20 21 21 21 21 21 21 21 21 21 21 22 22 22 22 22 22 21 21 21 19 18 17 17 17 16 15 15 13 9 9 17 25 28 28 27 26 26 26 26 26 26 25 24 22 21 22 23 24 24
25 25 26 26 26 26 26 26 26 26 26 25 25 25 24 23 21 20 20 20 20 20 20 20 21 21 21 22 21 21 21 22 22 22 22 21 22 22 21 20 19 18 18 18 17 16 15 14 14 11 8 14 22 26 26 26 26 26 27 27 27 26 25 23 22 21 22 23 24
23 24 25 25 24 24 25 25 26 26 26 25 25 24 23 22 21 20 20 20 20 20 21 21 21 21 22 22 21 21 21 21 21 21 22 21 22 22 22 21 20 19 19 19 18 17 15 13 13 14 12 8 13 19 23 24 24 25 25 26 26 26 25 24 23 22 22 23 24
22 23 23 23 23 23 23 24 25 25 25 25 24 24 23 22 21 20 19 19 20 20 20 21 21 21 22 22 21 20 20 21 21 21 21 22 22 22 21 21 20 20 19 19 18 17 15 14 13 13 13 12 9 12 18 21 22 22 23 24 25 25 25 24 23 23 23 23 24
21 22 22 22 21 22 22 23 23 24 24 24 24 24 23 22 20 19 18 18 19 19 19 20 20 21 21 21 20 20 20 21 22 22 21 22 22 21 21 21 20 20 20 19 19 18 16 15 14 13 14 13 11 9 12 17 19 21 22 22 23 24 24 24 23 23 22 23 23
20 21 21 20 20 20 21 22 22 23 23 23 23 23 22 21 19 18 18 18 18 18 19 19 20 20 20 20 20 19 20 21 23 23 22 22 22 21 20 20 20 20 20 20 19 18 18 17 16 15 14 14 12 9 9 13 16 19 20 21 22 22 23 23 23 22 22 22 23
19 20 20 19 19 19 20 21 22 22 22 22 22 22 21 21 19 19 18 18 18 19 19 19 19 20 20 20 19 19 20 21 23 24 23 23 22 21 21 20 20 21 22 21 20 19 19 18 18 17 16 15 12 10 8 10 13 16 18 20 21 22 21 21 21 21 21 22 23
Wind_Direction
9 8 3 333 255 235 232 235 240 244 248 251 253 255 257 259 260 263 263 261 257 254 255 255 256 256 256 254 247 234 215 194 179 174 173 173 172 171 170 170 170 170 169 168 168 168 168 168 167 167 167 168 169 170 173 176 177 178 179 180 180 180 179 180 182 182 182 183 186
9 10 10 5 323 247 234 235 238 242 246 250 254 257 259 260 260 260 260 258 255 252 250 250 251 248 243 235 223 207 191 180 175 174 175 175 175 174 173 172 172 172 171 170 169 168 168 168 168 168 168 169 169 171 173 177 178 178 178 179 180 179 179 180 182 182 182 182 184
10 11 12 13 9 333 245 236 238 241 244 248 252 255 256 255 253 251 250 247 242 237 232 226 225 219 211 202 196 188 180 175 173 173 174 175 176 176 175 174 174 173 172 171 170 169 169 170 169 169 169 169 169 170 173 176 178 177 177 178 178 179 179 180 182 182 181 180 181
11 12 12 13 15 18 23 31 43 174 208 215 219 224 227 228 223 216 209 205 202 198 192 187 183 181 180 178 177 176 174 172 171 171 172 173 175 176 176 175 174 174 173 172 171 170 171 171 171 170 170 170 170 171 172 175 177 177 177 177 177 178 179 181 182 182 180 179 180
12 13 14 14 15 18 22 29 40 53 68 84 98 108 116 121 125 130 137 145 152 158 162 164 163 163 164 165 165 166 167 168 169 170 170 172 174 176 177 176 175 175 174 173 172 172 173 173 171 171 171 172 172 172 173 175 176 176 176 175 175 176 177 179 180 180 179 179 180
11 14 16 16 17 18 20 23 28 36 46 58 68 79 88 96 102 106 109 114 126 138 147 152 154 155 155 156 157 157 158 161 165 168 169 171 174 175 176 176 176 176 175 174 174 174 175 174 172 172 172 172 172 173 175 175 175 174 173 172 172 173 174 175 177 177 177 177 179
12 15 16 17 17 18 20 22 25 30 36 44 52 60 70 80 89 96 101 107 115 125 134 142 146 150 152 152 151 151 152 155 159 164 167 170 172 174 175 176 176 176 175 175 175 175 176 175 172 171 171 171 170 172 174 175 174 172 171 169 169 170 172 173 174 175 176 178 180
14 15 16 17 18 19 20 23 25 26 28 31 38 48 60 68 77 86 94 101 106 114 124 132 139 145 149 149 150 151 151 152 154 158 163 166 169 172 173 175 175 175 175 174 174 175 175 174 171 169 169 169 170 172 174 175 174 172 169 167 167 167 169 171 173 176 177 180 183
14 15 16 17 18 19 21 23 25 25 25 26 29 37 50 62 70 77 83 90 98 108 116 123 131 137 142 144 146 149 151 152 152 154 158 162 165 168 170 172 173 174 174 174 175 176 175 174 171 169 168 170 171 171 172 173 171 169 168 167 167 168 170 173 176 178 180 182 187
13 14 15 16 17 19 21 24 25 25 25 25 26 30 38 50 64 73 79 85 94 101 107 115 123 128 132 136 140 145 148 150 151 153 156 159 162 164 167 170 173 174 175 176 177 178 178 178 174 171 170 170 171 170 170 171 170 170 170 171 172 174 176 179 180 180 182 185 190
14 14 15 15 16 19 21 23 23 23 24 25 26 27 29 35 50 67 80 87 90 94 100 109 116 122 127 132 137 142 146 147 150 152 154 156 159 161 164 168 171 174 176 178 179 179 178 177 174 171 169 170 170 171 171 173 174 174 175 177 178 179 180 183 184 184 185 187 191
15 16 16 16 17 18 20 21 21 21 22 22 23 24 25 26 34 51 75 86 87 90 97 107 115 120 125 131 136 142 146 148 149 151 152 154 156 158 160 163 167 171 173 175 176 176 176 174 173 170 168 170 172 173 175 176 177 177 177 178 179 179 180 182 185 186 187 188 190
18 18 17 17 17 18 19 19 19 19 19 20 21 22 23 25 27 34 53 77 88 92 97 106 115 122 127 132 137 142 146 149 150 150 150 152 154 156 156 158 160 164 166 169 171 172 172 173 173 172 171 172 174 175 176 177 176 175 174 175 176 178 180 182 184 186 188 188 188
20 19 19 18 18 18 18 17 17 17 17 17 18 20 23 25 27 29 34 51 78 93 99 104 113 122 131 137 141 144 147 150 151 151 150 152 154 155 155 156 157 158 159 162 165 169 171 173 175 175 175 174 174 175 176 175 174 172 172 173 176 179 182 184 186 188 190 191 193
20 20 19 19 18 18 17 16 15 15 15 15 17 20 22 24 27 29 30 33 47 74 96 103 109 121 135 144 146 148 150 152 154 154 154 155 156 157 157 158 159 158 158 159 163 167 170 173 175 176 175 174 174 174 174 173 172 171 172 175 178 182 185 188 190 193 196 199 203
19 19 19 19 18 17 16 15 14 14 14 14 17 19 21 23 26 30 31 31 33 42 68 98 108 120 136 149 155 155 156 156 158 159 159 160 161 162 162 163 163 163 162 161 162 165 168 170 172 173 173 173 173 173 173 172 171 172 174 179 183 187 190 193 196 200 205 210 213
19 19 18 18 17 16 15 15 14 14 13 14 16 19 20 22 26 30 32 33 33 33 39 62 98 123 139 153 163 166 165 164 164 165 167 168 168 169 168 169 170 169 168 166 164 164 166 168 169 170 171 172 173 173 173 173 173 174 178 184 188 192 196 200 204 209 213 216 217
19 18 18 17 16 15 15 14 14 14 14 15 16 18 20 23 25 29 32 35 35 34 34 38 51 88 135 156 171 179 179 177 176 177 178 179 179 178 177 177 177 176 175 173 170 169 168 168 168 169 171 172 173 175 175 175 176 180 184 190 194 198 203 208 212 215 216 216 216
18 18 18 17 16 15 14 14 14 14 15 16 17 19 20 23 25 28 31 33 36 37 37 37 38 43 66 141 174 189 194 193 191 191 190 190 189 188 186 184 184 183 183 182 179 177 175 173 172 173 173 173 174 175 176 179 182 186 191 195 199 204 208 213 216 217 217 216 215
18 18 17 16 16 16 15 15 14 15 16 18 19 19 20 22 25 27 28 29 33 37 40 40 38 36 37 46 139 191 201 206 205 202 200 198 196 193 191 188 186 186 186 187 187 186 183 182 181 181 181 180 178 178 179 183 186 190 195 199 203 206 210 214 216 217 216 215 212
17 17 17 17 17 17 16 16 15 16 17 19 19 20 20 21 23 25 26 28 32 36 39 40 39 37 35 33 33 78 205 210 210 207 205 202 199 196 193 190 186 184 184 186 189 190 191 191 191 191 191 189 187 186 186 187 190 193 197 201 204 207 210 214 217 217 215 212 210
16 17 18 18 18 19 18 18 17 17 18 19 19 19 19 20 21 23 25 29 32 34 35 36 37 37 36 35 33 30 13 211 209 208 206 203 200 198 195 191 186 181 180 181 185 189 193 195 195 195 194 193 192 192 191 192 193 196 200 205 209 211 213 215 216 216 214 212 209
16 17 18 19 20 20 20 19 19 19 18 18 18 17 17 17 18 20 24 27 30 32 32 33 33 34 36 37 37 36 35 38 207 206 205 203 200 198 195 193 188 183 180 180 183 187 189 190 191 191 192 192 191 192 192 191 192 194 199 206 213 218 219 219 218 216 215 214 212
17 18 19 19 20 20 21 20 20 20 19 17 16 15 15 15 16 18 21 24 27 28 29 30 30 32 34 36 38 39 38 36 37 200 203 202 199 197 196 194 191 188 185 185 187 189 189 187 186 187 188 189 189 188 187 186 184 185 189 198 210 219 224 224 223 220 219 218 218
16 18 19 20 20 21 21 21 20 19 18 17 16 15 13 13 14 15 17 20 22 24 25 27 28 30 31 33 34 36 37 36 34 32 176 201 200 199 198 196 195 194 192 191 191 192 191 189 188 188 189 189 188 188 186 185 185 185 188 195 207 217 224 227 227 225 223 223 223
15 17 18 19 20 21 21 20 20 19 18 18 17 15 12 11 11 13 14 16 18 20 21 23 25 27 28 29 30 31 32 33 33 31 29 25 204 202 200 199 198 198 197 196 195 194 194 193 192 192 192 192 191 191 191 193 193 194 197 201 208 215 220 224 226 226 226 225 225
14 15 16 18 20 20 20 20 20 19 19 18 17 15 12 11 10 11 12 13 15 16 18 19 21 22 23 25 26 27 27 27 28 29 30 29 23 230 210 206 204 203 202 202 200 199 199 199 199 199 198 198 198 197 197 199 201 203 206 209 212 215 217 219 221 222 223 224 224
12 13 14 16 18 19 20 20 20 19 18 17 17 15 13 12 11 11 11 11 12 14 15 15 16 17 20 21 22 23 23 23 23 24 26 28 28 24 3 242 222 215 211 209 207 207 207 208 208 209 208 207 206 205 205 205 206 208 210 212 214 216 217 218 219 220 220 221 221
10 11 13 14 16 17 18 19 19 18 17 17 17 16 15 14 12 11 10 10 11 11 11 10 11 14 16 17 18 20 21 21 21 20 20 21 24 25 23 13 318 242 227 220 215 213 213 215 217 218 218 216 214 211 209 207 207 207 209 211 214 215 217 218 219 220 220 220 221
10 11 12 13 14 15 16 17 18 18 17 17 17 17 16 14 12 11 10 9 9 8 8 8 9 10 12 13 15 16 17 17 18 17 16 15 15 18 21 22 16 348 263 236 227 222 219 219 220 222 222 220 217 213 209 207 206 206 206 209 211 214 216 218 219 220 221 221 221
9 10 10 11 12 13 14 15 16 17 17 17 18 18 17 15 12 11 9 7 6 6 7 8 8 9 10 12 13 13 13 14 15 14 12 10 9 10 13 18 21 19 2 288 245 233 227 223 222 221 221 220 217 214 210 207 206 205 206 208 210 213 215 217 219 220 221 221 220
9 9 10 10 11 11 12 13 15 16 17 17 17 17 16 13 11 9 7 6 5 5 6 7 7 7 8 9 10 11 11 10 10 10 9 7 5 5 6 9 14 20 20 10 316 255 238 230 225 222 220 218 216 214 212 210 209 209 209 210 212 214 217 218 220 221 221 221 219
9 9 9 9 9 9 10 11 13 14 15 16 16 16 14 12 9 7 6 5 5 4 4 5 5 5 5 5 6 6 7 6 6 7 7 6 4 3 3 3 6 12 17 20 15 346 272 242 232 225 221 217 216 215 215 215 214 213 213 213 215 217 219 221 223 223 223 222 220
9 9 9 8 8 8 9 10 11 12 13 14 14 14 14 11 9 6 4 3 3 3 4 4 4 4 4 4 4 4 4 3 4 4 4 4 3 2 1 1 2 6 10 13 16 15 4 313 252 235 227 221 218 216 216 217 216 216 215 215 216 217 218 221 224 227 227 225 222
10 8 7 7 8 8 9 10 10 11 12 12 12 11 11 11 8 5 2 1 1 1 2 3 4 4 3 4 4 4 3 2 1 1 1 2 2 1 360 360 2 5 7 7 8 11 12 9 347 277 242 229 223 219 217 216 216 216 216 215 215 215 216 218 222 227 229 228 225
11 9 7 7 7 8 9 9 10 10 10 10 9 8 8 8 7 4 1 360 360 359 360 1 2 3 3 3 3 3 2 1 360 359 359 0 1 360 358 358 0 4 6 5 4 4 5 8 8 356 305 246 230 223 219 216 215 215 214 214 214 214 215 216 218 223 227 228 226
11 9 8 7 7 8 9 9 9 8 8 7 6 6 5 5 4 3 2 360 359 358 358 360 1 2 2 0 359 359 360 0 359 358 358 359 0 359 358 357 358 0 2 2 2 2 2 3 6 5 355 313 251 232 224 219 216 214 212 210 211 213 215 216 218 221 225 226 226
11 10 9 8 8 9 9 10 9 7 5 4 4 4 4 4 3 2 1 0 358 357 357 358 359 359 359 358 357 356 357 359 360 359 358 358 360 360 358 355 355 357 359 0 1 1 1 2 4 5 1 348 306 255 233 224 218 214 210 207 208 212 215 217 219 221 224 226 226
10 9 9 9 10 10 10 9 9 7 5 3 2 3 3 3 2 0 359 359 358 357 356 356 356 357 357 356 355 354 355 357 358 359 358 357 359 360 358 355 353 354 358 360 1 2 2 2 3 5 4 358 340 297 254 233 222 214 208 205 206 210 214 217 219 222 225 227 226
9 8 9 10 11 11 10 9 8 7 6 4 3 2 1 1 1 360 359 358 359 359 358 356 355 355 356 356 355 353 353 353 356 357 357 357 359 360 359 356 353 353 356 360 2 3 3 3 3 4 6 4 356 331 288 252 231 217 208 203 203 207 212 216 219 222 225 227 227
8 8 9 10 13 13 11 9 8 7 7 6 5 2 1 1 2 2 1 360 359 359 359 357 356 356 356 357 356 354 352 351 352 354 355 356 357 358 358 355 353 352 354 358 1 3 4 3 2 3 5 7 4 351 318 276 246 226 212 204 202 204 208 213 217 221 224 226 226
Height
644 642 641 640 639 639 639 639 640 640 640 641 641 641 642 642 642 641 641 641 641 641 642 642 642 643 643 644 644 645 645 646 647 648 648 649 650 651 653 653 655 656 657 658 659 661 662 663 665 666 667 668 670 672 673 675 677 678 680 681 683 684 685 687 689 691 693 694 696
646 644 642 641 640 639 639 639 640 640 640 640 641 641 641 641 641 641 641 640 640 640 641 641 642 642 643 643 644 645 645 646 647 648 649 650 651 652 653 654 655 657 658 659 660 661 662 663 665 666 667 669 670 672 673 675 676 678 679 681 682 683 684 686 688 689 691 693 695
648 646 643 642 641 640 639 639 639 639 639 640 640 641 641 641 641 641 640 640 640 640 640 641 641 642 643 643 644 645 646 647 648 649 650 651 652 653 653 655 656 657 658 659 660 661 663 663 665 666 667 668 670 671 673 674 676 677 678 680 681 682 684 685 687 689 690 692 694
652 649 646 644 643 642 641 641 641 640 640 640 641 641 641 641 641 641 641 640 640 640 640 640 641 642 643 644 645 646 647 648 648 649 650 651 652 653 654 655 656 658 658 660 661 662 663 664 665 666 667 668 670 671 673 674 676 677 678 679 680 681 683 684 686 688 689 691 693
655 653 650 648 645 644 643 643 642 642 641 641 641 641 641 642 641 641 641 641 640 640 640 640 640 642 643 644 645 646 647 648 649 649 650 652 653 654 655 656 657 658 659 660 661 663 663 665 666 667 668 669 670 671 672 673 675 677 678 679 680 681 682 683 685 687 688 690 692
659 656 654 652 649 648 646 645 644 644 643 643 642 642 642 642 642 642 642 642 641 641 640 640 640 641 643 644 646 647 648 648 649 650 651 652 653 654 655 656 657 658 659 661 662 663 664 665 666 667 668 669 670 672 673 674 675 677 678 679 680 681 682 683 685 686 688 690 692
662 659 657 655 653 651 649 648 647 646 645 645 644 644 644 643 643 643 643 643 643 642 642 641 641 641 643 645 647 648 648 649 650 651 652 653 654 655 656 657 658 659 660 661 662 663 664 665 666 667 668 669 670 672 673 674 676 677 678 679 680 681 682 683 684 686 688 690 692
663 661 660 658 656 654 653 651 649 648 647 647 647 646 646 645 645 645 644 644 644 644 643 643 643 643 643 645 647 648 649 650 651 652 653 653 654 655 656 657 658 659 660 661 662 663 665 666 666 667 668 669 671 672 673 674 676 677 678 679 680 681 682 683 684 686 688 690 693
666 664 662 660 658 657 655 653 652 651 650 649 648 648 648 648 647 647 646 646 646 645 645 644 644 644 645 646 647 648 650 651 652 653 653 654 655 656 657 658 659 660 661 662 663 664 665 666 667 668 668 669 671 672 673 674 676 678 679 680 681 682 683 684 685 687 688 691 693
669 667 665 663 661 659 658 656 655 653 652 651 650 650 650 649 649 648 648 648 647 647 646 646 646 646 647 647 648 649 650 651 652 653 654 655 656 657 658 659 659 660 661 662 663 664 665 666 667 668 668 669 670 671 673 674 676 678 679 681 682 683 684 686 687 688 689 691 693
674 672 669 667 665 663 661 659 657 656 655 654 653 652 652 652 651 651 650 649 649 649 648 648 648 648 648 649 650 651 651 652 653 654 655 656 657 658 659 659 660 661 662 663 663 664 665 666 667 668 668 669 670 671 673 674 676 678 680 681 683 684 685 687 688 689 690 692 693
677 675 673 670 668 666 664 662 660 659 658 657 656 654 654 653 653 653 652 652 651 651 651 651 650 650 650 651 652 652 653 654 654 655 656 657 658 659 660 661 661 662 662 663 663 664 665 666 667 668 669 670 671 671 672 673 675 677 679 681 683 684 686 687 688 690 691 692 693
680 678 675 673 671 669 667 665 664 662 661 660 658 657 656 655 655 655 655 654 653 653 653 653 653 653 653 653 653 654 654 655 656 656 657 658 659 660 661 662 663 663 663 663 664 664 665 666 667 668 669 670 671 671 672 673 674 675 677 680 682 684 686 687 689 690 692 692 693
682 680 678 676 674 672 670 668 667 665 664 663 661 660 659 658 656 656 656 656 655 655 655 655 655 654 654 654 655 655 656 656 657 658 658 659 660 661 662 663 663 664 664 664 665 665 665 666 667 668 669 669 670 671 672 673 673 674 675 678 681 684 686 687 689 690 691 692 693
683 681 680 678 676 675 673 672 670 669 667 666 664 663 661 660 658 658 657 657 657 657 657 656 656 656 656 656 656 657 657 657 658 658 659 660 661 662 663 664 664 665 665 666 666 666 666 667 668 668 669 669 670 672 673 673 673 673 675 678 681 683 685 687 688 690 691 691 692
686 684 682 680 679 678 676 675 674 672 671 669 667 666 664 663 661 660 658 658 658 658 658 658 658 658 658 658 658 658 658 659 659 660 660 661 662 663 663 664 665 666 666 667 667 668 668 668 669 669 669 670 671 672 673 673 673 674 676 678 681 683 685 687 688 689 689 690 691
688 687 685 683 682 680 679 678 677 675 674 672 670 668 667 665 664 663 661 660 659 659 660 659 659 659 659 659 659 660 660 660 660 661 661 662 662 663 664 664 665 666 667 667 668 668 669 669 670 670 670 671 672 672 673 673 673 675 677 679 681 683 685 686 687 688 689 690 691
692 690 688 686 684 683 682 681 679 678 677 675 673 672 670 668 667 665 664 663 662 661 661 661 661 661 660 660 660 661 661 661 662 662 662 663 663 663 664 665 665 666 667 667 668 668 669 670 670 671 672 672 672 673 673 673 674 675 677 679 682 683 684 686 687 688 689 690 692
695 693 691 689 688 686 685 683 682 681 679 678 676 674 673 671 669 668 667 666 665 664 663 662 662 662 662 662 661 662 662 662 663 663 663 663 663 664 664 665 666 666 667 668 668 669 669 670 671 671 672 673 673 673 673 673 675 676 678 680 682 683 684 686 687 688 689 690 692
698 696 694 693 691 689 688 686 684 683 682 680 678 677 675 673 672 670 669 668 667 666 665 664 663 663 663 664 663 663 663 663 663 664 664 664 664 665 665 665 666 666 667 668 668 669 669 670 671 672 672 673 673 673 674 675 676 678 679 681 682 683 685 686 687 688 689 690 692
700 698 697 696 694 692 690 688 687 685 683 682 680 679 678 676 675 673 672 671 669 668 667 666 665 665 665 665 665 665 665 664 664 664 665 665 665 665 666 666 666 667 667 668 668 669 669 670 671 672 672 673 673 674 675 677 678 679 681 682 683 684 685 687 688 689 690 691 692
702 700 699 698 696 694 693 691 688 687 685 683 682 681 680 678 678 676 675 673 672 670 669 668 668 667 667 666 666 666 666 666 665 665 665 666 666 666 667 667 667 668 668 668 669 669 670 671 672 672 673 673 674 676 677 678 679 680 682 683 684 685 686 687 688 689 690 691 692
703 702 701 699 698 696 694 692 690 688 686 685 683 683 682 681 680 678 677 675 673 673 671 671 670 669 668 668 667 667 667 667 667 666 666 666 667 667 667 668 668 668 668 669 669 670 671 672 673 673 674 674 676 677 678 679 680 681 683 684 685 686 686 687 688 688 689 690 691
704 703 702 700 698 697 695 693 692 690 688 687 685 684 683 682 681 680 678 677 676 675 674 673 672 671 670 669 668 668 668 668 668 668 668 667 667 668 668 668 668 669 669 669 670 671 671 672 673 674 675 675 676 677 678 679 681 682 683 684 685 685 686 686 686 687 688 688 689
705 704 703 701 699 698 696 695 693 692 691 689 688 686 685 684 683 681 680 679 678 677 676 674 673 672 671 671 670 669 669 668 668 668 669 669 668 668 668 669 669 670 670 670 671 671 672 673 673 674 675 675 676 677 678 679 680 681 682 683 683 684 684 684 685 685 686 687 688
706 704 703 702 701 699 697 696 695 694 693 691 690 688 687 686 684 683 682 681 679 678 677 676 675 674 673 672 671 670 670 669 669 669 669 670 670 669 669 669 669 670 670 671 671 672 672 673 673 674 674 675 676 676 677 678 679 679 680 681 682 682 683 683 683 684 684 685 686
706 705 704 703 701 700 699 698 696 695 694 693 691 690 689 688 687 685 683 682 681 680 678 677 676 675 674 673 673 672 671 671 670 670 669 669 670 670 670 670 670 670 670 671 671 672 673 673 673 674 674 675 675 675 676 676 677 678 678 679 680 681 681 682 682 683 683 684 685
706 705 704 703 702 701 700 698 697 696 695 694 693 692 691 690 688 687 686 684 683 681 680 678 678 677 676 675 674 673 673 672 671 671 670 670 670 670 670 671 670 670 670 671 671 672 672 673 673 673 674 674 674 674 675 675 676 676 677 678 678 679 680 680 681 682 683 683 684
707 706 704 703 702 701 700 699 698 698 697 696 694 693 693 691 690 689 688 686 684 683 682 681 680 678 678 677 676 675 674 673 673 672 671 671 670 670 670 670 670 670 670 670 671 671 671 672 672 673 673 673 673 673 673 674 674 675 675 676 677 678 678 679 680 681 682 682 683
707 706 705 704 703 702 701 700 699 699 698 697 695 694 693 693 691 690 689 688 687 685 684 683 682 680 679 678 677 676 675 675 674 673 673 672 671 671 670 670 670 670 670 670 670 670 670 671 671 671 672 672 672 672 672 673 673 673 674 675 675 676 677 678 679 680 681 682 683
708 707 706 704 703 703 702 701 700 699 698 697 696 695 694 693 693 692 691 690 688 687 686 684 683 682 680 679 678 677 676 675 675 674 673 673 673 672 671 670 670 669 669 670 670 669 669 669 669 670 670 670 671 671 671 671 672 672 673 673 674 675 676 677 678 679 680 681 682
708 707 706 705 704 703 702 702 701 700 699 698 697 696 695 694 694 693 692 691 690 688 687 685 684 682 681 680 678 678 677 676 675 675 674 674 673 673 672 671 670 670 669 669 669 669 669 668 668 668 668 669 669 670 670 670 671 671 672 672 673 674 675 676 677 678 678 679 680
709 708 707 705 704 703 703 702 701 700 699 698 697 696 695 695 694 693 693 692 690 689 688 687 685 684 683 682 680 679 678 677 676 675 674 674 673 673 672 671 671 670 669 668 668 668 668 668 668 667 667 668 668 668 669 669 670 670 671 671 672 673 674 675 676 676 677 678 679
709 708 707 706 705 704 703 702 701 700 699 698 697 697 696 695 694 694 693 692 691 690 689 688 687 686 685 683 682 681 679 678 677 676 675 674 673 672 672 671 671 670 669 669 668 668 667 667 667 667 667 667 667 667 668 668 668 669 669 670 671 672 673 673 674 675 676 677 678
710 709 708 707 705 704 703 702 701 700 699 698 698 697 696 696 695 694 694 693 692 691 690 689 688 687 685 684 683 682 680 679 678 677 676 674 673 673 672 671 671 670 669 669 668 668 667 667 667 667 667 667 667 666 666 667 667 668 668 669 669 670 671 672 673 674 675 676 677
711 710 708 707 706 705 703 703 701 700 699 698 698 697 697 696 696 695 694 693 692 691 690 689 688 687 685 684 683 682 681 680 679 678 677 675 674 673 672 671 670 670 669 669 668 668 667 666 666 666 666 666 666 666 666 666 666 666 667 667 668 669 670 671 672 673 673 674 675
712 711 709 708 707 706 704 703 702 701 700 699 698 698 697 697 696 695 694 693 693 691 690 689 688 687 686 685 684 683 682 681 680 679 677 676 675 674 673 672 671 670 669 669 668 667 667 666 665 665 665 665 665 665 665 665 665 665 666 666 667 668 669 670 671 672 673 673 674
713 712 710 709 708 706 705 704 703 702 701 700 699 698 698 697 696 695 695 694 693 692 691 690 688 688 687 685 684 683 683 682 681 679 678 677 676 675 673 672 671 670 669 669 668 667 667 666 665 665 664 664 664 664 665 665 664 664 665 665 666 667 668 669 670 671 671 672 673
713 712 711 710 708 707 706 705 703 703 702 701 700 699 698 697 697 696 695 695 694 693 692 690 689 688 687 686 685 683 683 682 681 680 679 678 676 675 674 673 672 671 670 669 668 667 667 666 665 665 664 663 663 663 664 664 663 663 663 664 665 666 668 668 669 669 670 671 672
714 713 711 710 709 708 706 705 704 703 703 702 700 699 698 698 697 697 696 695 694 693 692 691 690 689 688 686 685 683 682 681 680 680 679 678 677 676 675 674 673 671 670 669 668 668 667 666 665 664 664 663 663 663 663 663 663 663 663 663 664 665 666 667 668 668 669 670 671
714 713 711 710 709 708 707 706 705 704 703 702 701 700 699 698 698 697 696 695 694 693 692 691 690 689 688 687 685 684 683 681 680 679 678 678 677 676 675 674 673 672 670 669 668 668 667 666 665 664 663 663 662 662 662 662 662 662 662 662 662 663 665 666 667 668 668 669 670